Location: ????????
(55.3939°N, 37.4780°E)
Time: 06:44:32
(UTC+00:00)

Cosmos 1125 Rocket - Pass Details

Date: 14 April 2026
Orbit: 752 x 776 km, 74.0° (Epoch: 12 May)

Event Time Altitude Azimuth Distance (km) Brightness Sun altitude
Exits shadow 18:55:02 14° 193° (SSW) 2,057 5.4 -17.4°
Maximum altitude 18:59:34 67° 113° (ESE) 831 3.4 -17.8°
Drops below altitude 10° 19:04:48 10° 31° (NNE) 2,324 6.2 -18.3°
Sets 19:07:12 0° 29° (NNE) 3,258 7.1 -18.5°
